Regional Weather Roundup
Issued by NWS Nashville, TN

Current Version | Previous Version | Text Only | Print | Product List | Glossary Off
Versions: 1 2 3 4 5 6 7 8 9 10 11 12 13 14 15 16 17 18 19 20 21 22 23 24 25 26 27 28 29 30 31 32 33 34 35 36 37 38 39 40 41 42 43 44 45 46 47 48 49 50

000
ASUS44 KOHX 212205
RWROHX
MIDDLE TENNESSEE HOURLY WEATHER ROUNDUP
NATIONAL WEATHER SERVICE NASHVILLE TN
500 PM CDT THU AUG 21 2014

NOTE: "FAIR" INDICATES FEW OR NO CLOUDS BELOW 12,000 FEET WITH
NO SIGNIFICANT WEATHER AND/OR OBSTRUCTIONS TO VISIBILITY.

* THESE REPORTS ARE NOT UNDER NWS QUALITY CONTROL AND MAY NOT
  REPORT WEATHER SUCH AS PRECIPITATION AND FOG.


TNZ005>011-023>034-057-059-062>066-078-080-212300
...NORTHERN MIDDLE TENNESSEE...

CITY           SKY/WX    TMP DP  RH WIND       PRES   REMARKS
CLARKSVILLE    SUNNY     90  71  53 S12       30.03F HX  96
CROSSVILLE     MOSUNNY   84  68  58 W5        30.17R
NASHVILLE      MOSUNNY   92  70  48 SW6       30.06S HX  97
SMYRNA         MOSUNNY   93  71  48 NW8       30.06F HX  99
SPARTA         SUNNY     91  73  55 VRB5      30.10S HX 100
$$
TNZ056-058-060-061-075>077-079-093>097-212300
...SOUTHERN MIDDLE TENNESSEE...

CITY           SKY/WX    TMP DP  RH WIND       PRES   REMARKS
COLUMBIA       MOSUNNY   93  73  52 SW9       30.06F HX 102
FAYETTEVILLE   SUNNY     90  70  51 SW6       30.09F HX  95
MCMINNVILLE    SUNNY     91  73  55 SW6       30.10S HX 100
SHELBYVILLE    SUNNY     93  72  49 W6        30.09F HX 100
TULLAHOMA      MOSUNNY   90  70  51 W6        30.11S HX  95
WINCHESTER     SUNNY     91  72  52 CALM      30.10F HX  98
$$


...KEY TO REMARKS...
VSB - VISIBILITY IN MILES
WCI - WIND CHILL INDEX
HX  - HEAT INDEX



USA.gov is the U.S. government's official web portal to all federal, state and local government web resources and services.